SJ-11-05

Satellite information

Favourite Embed

Satellite Type and Status

PAYLOADIN ORBIT

Key statistics

Satellite SJ-11-05 at a glance.

Uptime

4435

Days in orbit

Revolutions

≈ 14.6

Per day

Orbit

SSO

Sun Synchronous Orbit

Inclination

98.3

Latest

Satellite identification and parameters

Extended collection of information and parameters for SJ-11-05.

Object identification

Identified? True

Debris? False

Object name: SJ-11-05

International designator: 2013-035A

Object number (NORAD): 39202

Object ID (CCSDS): 39202

Country: PEOPLES REPUBLIC OF CHINA (PRC)

Current information (Y/N): Y

RCS size: LARGE

Orbital parameters

Period: 98.335 minutes

Inclination: 98.2792 deg

SMA: 7057.221 km

Apoapsis: 686.913 km

Periapsis: 671.258 km

RAAN: 64.2557 deg

Eccentricy: 0.00110913

Argument of periapsis: 58.2795 deg

Mean anomaly: 301.9486 deg

Mean motion: 14.64374648 rev/day

Mean motion (dot): 0.00001424 rev/day2

B* drag term: 0.00027853326 1/REarth

Two-line elements (TLE)

Creation date: Sept. 3, 2025, 10:15 a.m.

Reference frame: TEME

Reference center: EARTH

Epoch: Sept. 3, 2025, 6:27 a.m. UTC

TLE line 0: 0 SJ-11-05

TLE line 1: 1 39202U 13035A 25246.26924472 .00001424 00000-0 27853-3 0 9992

TLE line 2: 2 39202 98.2792 64.2557 0011091 58.2795 301.9486 14.64374648647232

Live tracking on map

Real-time ground track for satellite SJ-11-05.

In-orbit conjunctions

There are no conjunctions computed for SJ-11-05, at the moment. Check back to stay up to date, as we update our databases every day.

Go to all conjunctions

Associated space launch

SJ-11-05 was lifted into orbit during the mission ‘Long March 2C | Shijian 11-05’, on board a Long March 2 space rocket.

The launch took place on July 15, 2013, 9:27 a.m. from Launch Area 4 (SLS-2 / 603).

For more information about the launch, click the button.

Launch to space Long March 2C | Shijian 11-05
Long March 2C | Shijian 11-05

Agency: N/A

Status: Launch Successful

Launch date: July 15, 2013, 9:27 a.m. UTC

Rocket: Long March 2

Launch pad: Launch Area 4 (SLS-2 / 603)

Location: Jiuquan Satellite Launch Center, People's Republic of China

...

Latest news about this satellite

There are no fresh news available about this satellite. Check back as we update our databases every day.


Newsletter sign-up

Weekly statistics, charts and insights to help you stay on top of the space industry.